Retour au catalogue

IRIDIUM 33 DEB

ActifPO
NORAD 33870·DEBRIS·🇺🇸 United States

Lancé Sep 14, 1997 depuis Baikonur Cosmodrome

Loading…

Prochains Passages (prochaines 24 heures)

TLE

FraisSource: Space-Track

Époque: Sep 14, 2026, 09:42 UTC

1 33870U 97051AP  26257.40453779  .00001167  00000-0  31443-3 0  9997
2 33870  86.3723 299.9926 0019636 352.9664  19.7676 14.47064877921228

Suivez IRIDIUM 33 DEB en temps réel avec AllMySat

Download on the App Store